Location: *
(42.5628°N, 2.3633°E)
Time: 03:20:55
(UTC+00:00)

Okean 1-7 Rocket - Pass Details

Date: 30 March 2020
Orbit: 617 x 648 km, 82.5° (Epoch: 31 May)

Event Time Altitude Azimuth Distance (km) Brightness Sun altitude
Rises 19:15:21 0° 348° (NNW) 2,907 7.4 -11.7°
Reaches altitude 10° 19:17:36 10° 345° (NNW) 1,994 6.6 -12.1°
Maximum altitude 19:21:58 63° 265° (W) 694 4.1 -12.9°
Drops below altitude 10° 19:26:16 10° 185° (S) 1,974 6.0 -13.7°
Sets 19:28:30 0° 182° (S) 2,875 6.8 -14.0°
